Temp
37 36 34 34 32 33 33 33 33 36 38 38 35 33 33 33 36 37 39 39 40 41 38 39 39 41 42 41 42 45 46 42 42 51 51 50 51 50 50 51 52 51 50
34 33 33 33 32 32 33 32 32 34 36 36 36 33 34 34 35 36 37 38 38 39 42 40 37 37 39 39 38 40 42 41 40 48 46 46 48 47 48 48 49 48 48
33 32 32 31 31 30 30 32 32 32 35 35 35 35 34 36 35 34 34 35 37 37 38 39 40 38 36 35 35 36 39 39 40 44 43 46 44 45 47 45 46 45 44
34 32 31 30 30 29 29 30 30 31 33 36 35 34 35 32 32 32 33 33 35 35 35 37 38 38 38 35 36 36 35 38 35 42 44 41 40 43 39 43 43 43 41
32 30 31 31 31 29 27 28 29 30 32 34 34 33 31 32 32 32 32 32 33 33 34 35 35 35 36 35 35 33 33 33 32 32 36 40 40 40 43 38 37 38 38
31 30 32 31 29 29 27 28 28 29 30 32 33 33 31 31 31 31 30 30 31 31 32 33 33 34 33 33 33 33 31 31 31 31 30 31 32 33 35 36 35 35 34
29 27 27 26 26 27 28 28 28 27 30 31 32 33 33 32 31 30 29 29 28 29 29 31 31 31 32 32 32 30 29 28 28 27 27 28 27 30 33 34 32 34 34
29 27 25 24 26 27 27 28 28 27 28 28 29 30 31 29 28 28 28 27 26 27 29 29 29 30 30 30 29 29 28 27 27 26 26 27 26 27 29 30 28 27 28
27 24 23 24 26 26 26 27 27 26 26 26 26 26 27 27 25 26 26 26 27 28 26 27 27 28 28 28 27 26 26 26 26 26 25 25 25 26 26 27 27 26 25
23 22 23 23 25 25 25 26 26 24 25 25 25 24 24 24 24 24 23 23 24 25 25 25 25 25 25 26 26 26 26 25 26 25 24 24 24 24 24 26 25 25 24
19 20 21 22 24 24 24 23 23 23 22 22 22 21 21 21 21 21 21 21 21 22 22 22 22 21 21 22 24 24 24 24 23 24 23 23 23 22 22 24 24 23 22
19 18 19 20 22 22 22 21 21 20 20 20 19 19 20 20 18 18 18 19 18 19 19 19 18 19 20 20 21 21 22 21 21 22 22 22 26 22 22 22 22 22 22
16 15 16 17 18 19 19 19 18 17 17 18 17 17 17 17 16 16 17 17 17 16 17 16 16 17 18 19 20 20 21 21 21 21 21 21 21 21 21 22 22 23 26
15 14 13 12 12 16 16 16 15 16 16 16 15 14 14 14 14 15 15 15 13 12 12 12 13 15 17 20 21 22 20 20 21 23 23 22 22 21 22 25 23 24 23
13 13 10 9 8 10 13 13 13 14 14 13 12 11 11 12 11 10 9 9 10 9 9 11 11 10 13 21 17 21 19 19 19 20 23 23 26 28 28 27 25 24 23
14 13 11 8 8 9 11 13 12 12 12 11 9 9 10 10 10 10 10 11 11 12 13 14 13 14 19 31 32 24 21 21 19 19 18 20 23 24 26 27 28 28 23
13 12 10 10 9 9 12 10 10 11 11 10 10 11 12 12 12 13 13 13 13 13 14 15 16 14 15 30 31 28 22 20 15 14 15 18 22 21 18 22 27 26 29
13 12 11 11 11 11 10 10 11 11 11 11 11 13 14 14 15 16 16 16 17 16 16 16 16 17 20 28 29 28 21 20 18 14 11 11 16 16 22 19 16 17 18
14 13 12 11 10 11 11 11 12 13 13 13 14 15 16 16 17 16 16 17 17 17 17 17 15 15 15 27 28 24 18 19 16 20 15 15 13 25 31 19 15 15 18
12 11 11 11 10 11 13 12 12 13 13 14 15 17 17 17 16 17 16 17 16 16 18 17 15 21 13 24 27 24 21 15 20 19 21 26 24 29 30 22 19 18 19
11 12 12 10 11 12 13 12 13 13 15 17 18 19 19 17 17 16 15 14 14 14 13 14 13 13 17 15 27 28 23 21 21 20 19 22 27 28 28 28 14 19 25
12 11 10 10 12 13 14 13 13 15 17 18 18 17 18 19 18 16 15 15 12 11 11 11 12 13 12 22 24 27 27 26 21 19 19 20 27 26 26 23 26 27 22
10 11 11 11 13 14 15 13 14 15 16 16 16 16 17 17 17 15 14 12 12 10 10 11 10 11 15 14 22 24 26 26 22 22 23 23 24 23 19 22 22 22 14
10 11 11 11 11 14 14 14 14 15 15 14 13 14 13 14 15 15 15 11 8 8 9 9 8 6 10 13 15 18 15 21 20 18 14 18 18 18 18 16 16 16 14
11 12 11 11 11 12 12 13 15 15 13 13 13 13 13 12 11 12 11 11 11 11 7 5 7 3 5 14 24 23 19 18 20 6 -0 6 9 9 10 11 12 13 14
11 11 11 10 10 10 12 14 15 14 13 11 11 10 10 10 9 8 9 20 21 23 23 23 16 15 22 25 26 26 24 24 24 -4 -11 -6 4 6 7 7 8 10 11
MSLP
1024.68 1025.46 1025.97 1026.58 1027.19 1027.40 1027.70 1028.38 1026.76 1027.91 1028.38 1027.77 1027.83 1028.24 1028.76 1028.87 1028.52 1028.66 1028.40 1028.28 1028.42 1028.14 1028.44 1028.43 1028.31 1028.47 1028.32 1028.73 1028.44 1028.36 1028.57 1028.93 1029.13 1028.56 1029.12 1029.90 1030.00 1029.98 1029.85 1029.79 1029.72 1029.99 1030.53
1024.11 1025.10 1025.76 1026.36 1026.91 1026.97 1026.87 1027.31 1027.82 1028.93 1028.29 1027.78 1028.10 1028.82 1029.24 1029.44 1029.38 1029.17 1029.19 1029.11 1028.98 1029.03 1028.91 1028.95 1029.17 1029.14 1029.28 1029.05 1029.04 1028.90 1029.20 1029.70 1029.68 1029.37 1029.24 1030.24 1030.86 1031.03 1031.18 1030.86 1030.80 1031.18 1031.47
1022.90 1024.30 1025.22 1025.83 1026.44 1027.03 1027.30 1027.26 1026.78 1028.18 1028.77 1028.07 1028.76 1029.00 1029.17 1029.31 1029.88 1029.61 1030.05 1029.93 1029.76 1029.80 1030.01 1029.52 1029.50 1029.74 1030.28 1030.05 1029.82 1029.53 1029.50 1030.19 1030.34 1030.19 1030.16 1030.29 1030.72 1031.50 1032.11 1032.08 1031.92 1032.21 1032.58
1022.00 1023.29 1024.33 1025.38 1026.26 1027.01 1027.15 1027.66 1027.50 1027.99 1029.10 1028.64 1028.70 1028.87 1028.68 1029.18 1030.48 1030.47 1030.53 1030.85 1030.49 1030.44 1030.77 1030.28 1030.36 1030.34 1030.89 1030.87 1030.42 1030.33 1030.16 1030.34 1030.91 1030.80 1030.77 1030.87 1030.91 1031.25 1032.46 1032.99 1033.04 1033.21 1033.55
1021.30 1022.84 1023.98 1025.15 1026.16 1026.97 1027.51 1027.85 1027.73 1028.47 1029.76 1028.61 1028.40 1028.64 1029.04 1029.71 1030.79 1031.04 1030.92 1031.16 1031.14 1031.16 1031.46 1031.11 1031.17 1031.26 1031.69 1031.49 1031.49 1031.34 1031.16 1031.30 1031.76 1031.82 1031.63 1031.49 1031.50 1031.65 1031.77 1032.95 1033.90 1034.17 1034.66
1020.79 1022.23 1023.22 1024.52 1025.76 1026.77 1027.67 1027.95 1028.43 1028.77 1029.20 1028.32 1028.78 1029.04 1029.09 1030.12 1031.12 1031.33 1031.26 1031.55 1031.85 1031.99 1032.16 1032.13 1032.23 1032.28 1032.54 1032.43 1032.28 1032.40 1032.36 1032.73 1032.81 1032.95 1032.93 1032.99 1033.10 1033.15 1032.99 1033.49 1034.20 1034.65 1035.61
1020.04 1021.44 1022.45 1023.83 1025.49 1026.59 1027.31 1028.23 1028.65 1028.70 1028.98 1028.92 1029.11 1029.80 1029.59 1030.58 1031.15 1031.41 1031.72 1032.03 1032.43 1032.65 1033.22 1033.22 1033.29 1033.39 1033.34 1033.31 1033.13 1033.17 1033.55 1033.96 1034.13 1034.27 1034.30 1034.42 1034.50 1034.34 1034.11 1034.06 1034.76 1034.92 1035.65
1019.45 1020.84 1022.18 1023.73 1025.01 1026.19 1027.17 1027.63 1028.31 1028.86 1029.07 1029.50 1029.87 1030.21 1030.43 1031.05 1031.32 1031.99 1032.40 1032.67 1032.89 1033.82 1034.09 1034.12 1034.19 1034.25 1034.14 1034.22 1033.94 1034.06 1034.49 1034.89 1035.23 1035.42 1035.58 1035.53 1035.67 1035.59 1035.44 1035.36 1035.52 1035.78 1035.95
1019.42 1021.06 1022.72 1023.81 1025.06 1026.30 1027.14 1027.66 1028.16 1029.08 1029.74 1029.91 1030.37 1030.97 1031.28 1031.43 1031.84 1032.45 1032.98 1033.20 1033.85 1034.36 1034.92 1035.09 1035.17 1035.11 1035.01 1035.09 1034.89 1035.11 1035.58 1035.81 1036.14 1036.22 1036.52 1036.54 1036.67 1036.50 1036.59 1036.54 1036.52 1036.52 1036.59
1020.21 1021.74 1023.08 1024.21 1025.40 1026.33 1027.14 1027.93 1028.96 1029.60 1030.24 1030.53 1031.18 1031.62 1031.85 1031.87 1032.55 1032.83 1033.78 1034.37 1034.82 1035.26 1035.71 1035.98 1035.93 1035.98 1036.13 1035.88 1035.74 1036.12 1036.40 1036.57 1036.91 1037.23 1037.43 1037.52 1037.60 1037.51 1037.51 1037.48 1037.53 1037.48 1037.53
1021.06 1022.28 1023.35 1024.56 1025.70 1026.77 1027.74 1028.68 1029.43 1030.19 1030.86 1031.42 1031.69 1032.15 1032.52 1032.90 1033.05 1033.84 1034.89 1035.31 1035.61 1036.15 1036.64 1036.92 1036.93 1037.03 1036.91 1036.84 1036.78 1037.00 1037.23 1037.54 1037.81 1037.89 1038.16 1038.27 1038.28 1038.36 1038.35 1038.26 1038.35 1038.28 1038.22
1021.99 1023.25 1024.20 1025.21 1026.38 1027.53 1028.48 1029.24 1030.06 1030.74 1031.28 1031.79 1032.49 1033.15 1033.13 1033.49 1033.94 1035.03 1035.75 1036.20 1036.54 1037.01 1037.54 1037.64 1037.57 1037.69 1037.64 1037.80 1037.83 1037.85 1038.27 1038.34 1038.46 1038.66 1038.69 1038.79 1038.55 1038.74 1038.87 1038.90 1038.88 1038.86 1038.81
1022.94 1024.08 1025.05 1025.98 1026.93 1027.91 1028.82 1029.67 1030.42 1031.16 1031.89 1032.65 1033.23 1033.69 1034.15 1034.50 1035.18 1035.83 1036.59 1036.95 1037.20 1037.80 1038.26 1038.21 1038.18 1038.31 1038.38 1038.47 1038.58 1038.71 1038.99 1039.01 1039.11 1039.26 1039.25 1039.32 1039.23 1039.13 1039.10 1039.10 1039.17 1039.09 1039.06
1023.20 1024.54 1025.74 1026.63 1027.50 1028.39 1029.18 1030.03 1031.01 1031.81 1032.55 1033.13 1033.74 1034.42 1035.13 1035.60 1036.02 1036.69 1037.24 1037.58 1038.16 1038.66 1038.99 1039.05 1038.96 1039.00 1039.08 1038.91 1038.82 1039.02 1039.25 1039.38 1039.53 1039.50 1039.43 1039.56 1039.43 1039.16 1039.03 1038.96 1039.05 1039.02 1039.05
1023.38 1024.58 1025.99 1027.19 1027.99 1028.98 1029.72 1030.59 1031.57 1032.43 1033.09 1033.67 1034.37 1035.29 1035.87 1036.42 1036.95 1037.62 1038.13 1038.59 1038.97 1039.36 1039.42 1039.39 1039.50 1039.66 1039.37 1038.70 1039.08 1039.11 1039.60 1039.79 1039.93 1039.89 1039.69 1039.69 1039.26 1039.13 1038.78 1038.68 1038.90 1038.90 1038.78
1024.86 1025.04 1025.84 1027.31 1028.19 1029.23 1030.11 1030.87 1031.80 1032.67 1033.26 1034.19 1035.28 1035.91 1036.27 1036.68 1037.20 1037.90 1038.46 1038.98 1039.35 1039.46 1039.42 1039.63 1039.83 1039.79 1039.31 1038.16 1038.00 1039.18 1039.66 1039.77 1039.97 1040.16 1040.19 1040.10 1039.83 1039.59 1039.46 1039.10 1038.77 1038.54 1038.34
1024.41 1026.29 1026.89 1027.41 1028.51 1029.50 1030.22 1031.25 1032.12 1033.05 1033.94 1034.68 1035.45 1036.00 1036.43 1036.91 1037.47 1038.04 1038.62 1039.05 1039.33 1039.48 1039.62 1039.83 1039.95 1040.12 1039.79 1038.41 1038.33 1039.11 1039.70 1039.94 1040.44 1040.54 1040.48 1040.27 1039.94 1039.88 1039.82 1039.24 1038.68 1038.60 1038.19
1023.91 1025.71 1026.87 1028.51 1029.18 1030.19 1030.83 1031.66 1032.58 1033.36 1034.13 1034.83 1035.48 1036.08 1036.61 1037.22 1037.78 1038.21 1038.64 1038.96 1039.12 1039.42 1039.74 1040.15 1040.27 1040.19 1039.75 1038.92 1038.81 1039.21 1039.82 1040.03 1040.22 1040.46 1040.74 1040.74 1040.18 1039.92 1038.79 1038.79 1039.05 1038.82 1038.53
1024.35 1026.14 1027.43 1028.69 1029.66 1030.82 1031.41 1031.79 1032.87 1033.60 1034.21 1034.93 1035.61 1036.21 1036.69 1037.18 1037.72 1038.21 1038.60 1038.94 1039.30 1039.69 1039.94 1040.28 1040.53 1040.64 1040.65 1039.33 1039.02 1039.67 1040.14 1040.20 1040.36 1040.05 1040.17 1039.96 1040.02 1038.91 1037.73 1038.31 1038.53 1038.40 1038.13
1025.16 1026.50 1028.13 1029.35 1030.40 1031.47 1031.79 1032.16 1032.89 1033.83 1034.52 1035.03 1035.75 1036.34 1036.78 1037.16 1037.77 1038.38 1038.87 1039.30 1039.64 1039.95 1040.05 1040.41 1040.89 1040.27 1040.95 1039.81 1039.20 1039.55 1039.86 1040.16 1040.05 1039.89 1039.67 1039.36 1039.01 1038.22 1037.78 1038.23 1038.73 1038.29 1038.09
1025.59 1026.77 1028.35 1029.83 1030.88 1031.96 1032.18 1032.51 1033.17 1034.03 1034.72 1035.26 1035.80 1036.36 1036.93 1037.52 1038.19 1038.81 1039.37 1039.77 1040.09 1040.40 1040.62 1040.80 1041.19 1041.26 1040.88 1040.74 1039.30 1039.10 1039.58 1039.94 1039.89 1039.91 1039.79 1039.48 1038.75 1038.30 1038.19 1038.09 1039.10 1037.73 1036.98
1026.06 1027.14 1028.46 1030.31 1031.13 1032.31 1032.51 1032.96 1033.47 1034.31 1035.04 1035.53 1036.12 1036.78 1037.32 1037.72 1038.47 1039.10 1039.69 1040.13 1040.50 1040.78 1041.06 1041.22 1041.28 1041.35 1041.40 1040.48 1039.94 1039.43 1039.25 1039.19 1039.71 1039.89 1039.95 1039.78 1039.01 1038.93 1038.77 1038.77 1038.14 1037.74 1037.92
1026.93 1027.75 1028.39 1030.40 1031.49 1032.24 1032.70 1033.16 1034.09 1034.68 1035.30 1035.97 1036.65 1037.22 1037.71 1038.22 1038.86 1039.39 1039.98 1040.48 1040.86 1041.13 1041.34 1041.48 1041.55 1041.39 1041.08 1041.15 1040.48 1040.05 1039.56 1039.54 1039.65 1039.97 1039.80 1039.88 1039.64 1039.55 1039.58 1039.05 1038.73 1038.53 1038.86
1027.60 1028.35 1029.30 1030.41 1031.58 1032.41 1033.15 1033.74 1034.39 1035.12 1035.74 1036.43 1037.12 1037.73 1038.24 1038.78 1039.26 1039.67 1040.21 1040.66 1041.10 1041.33 1041.47 1041.68 1041.82 1041.56 1041.24 1040.99 1040.66 1040.34 1040.33 1040.01 1040.23 1040.60 1040.83 1040.37 1040.20 1040.04 1039.82 1039.64 1039.37 1039.08 1038.86
1028.16 1029.08 1029.96 1030.89 1031.89 1032.97 1033.79 1034.34 1034.91 1035.37 1036.06 1036.81 1037.58 1038.14 1038.70 1039.35 1039.89 1040.34 1040.53 1040.70 1041.09 1040.94 1040.92 1041.22 1041.70 1041.75 1041.40 1040.62 1039.60 1039.39 1039.92 1040.04 1040.23 1041.50 1041.92 1041.25 1040.85 1040.50 1040.13 1039.83 1039.52 1039.16 1038.76
1028.87 1029.85 1030.76 1031.74 1032.84 1033.66 1034.38 1034.86 1035.19 1035.72 1036.33 1037.21 1038.03 1038.73 1039.37 1039.91 1040.43 1040.72 1040.83 1040.00 1040.01 1039.90 1039.99 1040.10 1040.91 1041.23 1040.41 1039.80 1039.50 1039.37 1039.74 1039.82 1039.88 1041.57 1042.25 1042.02 1041.48 1041.10 1040.60 1040.14 1039.51 1039.13 1038.66
Wind_Speed
8 9 9 7 5 5 7 4 5 3 2 2 2 3 4 3 5 6 8 8 8 8 6 4 5 5 6 4 4 2 5 6 5 4 8 8 9 10 9 8 8 11 11
12 12 11 10 8 5 4 7 6 4 2 2 2 2 3 5 4 5 8 9 9 9 7 6 5 6 4 6 5 4 2 3 5 2 2 3 3 7 9 7 8 11 9
17 15 15 12 9 7 6 4 8 2 3 5 5 6 5 4 2 5 5 8 9 9 8 8 6 6 5 4 4 4 5 3 4 7 1 3 3 3 4 8 8 9 8
13 13 14 13 12 9 5 4 6 3 3 4 6 2 3 5 3 4 5 6 9 10 9 9 8 8 5 6 5 5 4 3 3 1 5 5 3 3 4 4 6 8 9
15 15 15 14 11 9 8 7 6 6 4 3 5 5 8 8 5 5 8 8 8 10 10 9 9 9 6 8 9 7 9 6 3 3 2 3 4 4 1 4 3 7 7
16 14 14 14 12 10 8 7 7 7 4 6 5 8 11 10 7 6 6 6 6 6 10 10 8 8 8 8 8 9 12 9 8 6 7 5 3 3 2 4 3 4 5
18 18 19 16 14 12 11 8 8 9 6 7 8 8 10 10 10 8 6 7 5 6 8 8 8 7 8 8 8 10 12 10 8 8 7 6 6 3 2 2 2 1 2
16 18 17 15 15 15 13 11 10 10 9 8 9 8 10 6 7 8 7 6 7 6 7 7 8 9 9 8 9 8 8 9 8 11 8 6 6 6 6 2 1 2 1
17 17 15 14 14 12 11 11 12 10 9 10 9 9 8 10 10 11 8 7 7 7 8 8 8 9 9 8 9 8 9 9 8 9 8 7 6 6 6 5 5 2 2
15 16 15 14 13 12 12 11 10 10 10 10 9 8 9 11 10 10 10 9 8 8 8 8 9 9 8 9 9 8 9 9 7 7 9 8 6 6 6 6 5 5 3
14 14 14 14 14 13 12 12 11 11 10 9 9 9 9 10 11 10 9 8 9 8 9 8 9 8 8 8 8 9 9 9 8 7 8 8 7 6 5 5 5 5 3
14 13 14 15 15 13 12 12 11 11 9 9 10 9 10 11 11 10 9 8 9 8 7 8 7 8 8 8 9 9 7 8 8 7 8 8 7 6 5 4 5 4 3
16 14 14 14 14 13 12 12 11 11 10 9 10 9 10 10 10 10 8 8 9 8 7 7 7 7 7 7 7 7 6 7 6 6 6 6 6 5 3 3 3 2 3
16 14 13 12 11 12 12 12 11 10 10 10 10 10 9 9 9 9 8 9 7 7 6 6 6 5 4 4 4 5 5 5 5 5 5 5 4 4 3 3 3 4 3
17 16 14 12 11 12 12 12 11 10 9 11 10 9 9 9 9 8 7 6 6 6 5 6 6 4 3 1 3 4 4 4 4 4 6 5 8 10 8 5 4 4 4
12 15 16 14 13 13 12 12 11 10 11 11 10 8 8 8 8 7 6 6 5 5 6 6 5 5 3 9 10 8 5 5 4 4 4 4 7 8 11 10 10 8 4
14 12 12 15 13 12 13 13 12 11 11 11 9 8 8 9 8 7 6 6 5 4 6 6 5 4 3 10 10 12 4 4 3 2 3 4 5 7 5 9 11 10 12
18 16 14 12 12 11 12 13 11 11 11 10 10 8 9 9 8 8 7 6 5 6 5 5 5 5 5 9 7 11 4 3 2 2 2 2 5 5 7 5 4 5 6
14 12 12 14 13 12 11 14 12 11 11 11 10 9 9 9 9 8 7 6 7 6 6 5 5 5 5 8 7 9 4 3 3 3 3 3 4 12 15 3 3 5 6
15 16 14 13 13 12 12 13 13 11 11 10 10 9 9 9 9 8 7 6 6 6 5 6 5 9 5 8 8 7 1 3 2 3 3 11 9 14 17 9 7 5 5
19 19 17 14 13 10 11 13 13 11 11 11 10 10 9 9 9 8 6 6 6 6 5 5 4 5 5 5 7 9 2 3 2 2 4 6 14 14 18 20 7 9 9
20 19 17 14 13 11 12 13 13 11 11 12 11 11 10 8 8 9 7 7 5 5 4 4 3 3 3 7 8 10 9 7 1 2 2 4 15 17 19 14 19 20 14
16 16 19 16 12 10 10 14 12 12 13 12 12 10 10 9 9 9 8 6 4 4 3 3 3 3 3 2 8 8 8 8 5 5 8 12 15 15 11 14 14 12 5
15 16 17 16 14 11 11 12 12 12 12 12 11 9 9 9 7 5 5 4 3 2 2 2 1 2 3 4 3 4 4 8 5 7 5 8 9 9 9 7 7 5 5
14 15 15 14 13 12 11 11 12 12 12 11 9 8 8 7 6 4 3 3 2 4 3 3 2 1 3 4 6 2 2 2 4 3 3 3 4 5 5 5 5 5 6
15 14 15 15 13 12 11 10 10 11 12 11 8 7 6 6 5 4 3 5 6 7 5 5 4 4 4 8 8 8 12 12 11 5 3 3 4 5 6 6 7 6 9
Wind_Direction
190 173 170 166 161 161 146 162 54 307 215 110 65 54 62 43 50 46 44 41 31 50 44 38 46 34 56 45 38 65 53 36 4 105 79 59 48 43 40 43 69 71 65
184 182 176 175 182 156 151 133 116 289 280 103 92 105 118 80 60 54 48 39 45 31 56 51 38 35 46 49 42 48 91 59 14 74 127 136 93 47 31 37 58 61 60
191 186 183 178 167 170 152 137 136 130 286 119 112 109 108 93 47 46 41 39 49 41 29 43 52 50 29 49 46 48 72 108 36 43 5 147 137 129 29 40 58 62 55
195 183 180 175 172 163 131 135 120 115 214 167 143 146 112 113 73 83 78 52 46 47 37 40 43 50 43 35 42 39 54 91 72 2 42 55 27 141 141 51 57 61 57
189 179 173 166 158 149 149 141 110 134 218 128 118 109 101 99 113 97 83 64 52 48 41 42 45 48 41 51 46 40 55 47 76 46 14 21 42 28 128 141 117 68 50
181 168 157 148 147 147 142 138 143 140 168 106 102 121 123 124 124 108 91 72 59 48 41 44 44 51 50 45 54 52 54 53 61 59 51 51 49 30 29 96 77 111 67
171 164 158 153 147 150 144 148 146 122 118 113 114 125 120 122 114 103 96 91 72 54 41 44 46 48 54 54 62 64 59 51 56 50 56 50 46 16 33 55 86 120 142
169 166 157 150 150 154 153 144 139 125 110 105 99 97 99 107 96 92 93 83 75 67 56 53 53 53 55 53 63 61 66 60 58 55 48 55 39 33 31 47 55 92 90
162 155 148 143 144 146 144 139 128 119 115 109 103 95 101 101 100 91 82 80 85 84 66 60 60 53 56 57 62 64 61 59 53 53 51 52 38 40 32 38 26 12 106
143 144 144 139 137 133 130 122 121 117 115 105 108 104 102 94 95 89 84 85 82 82 78 71 65 63 54 58 65 63 57 63 57 54 53 48 37 41 37 37 32 31 39
141 141 135 130 128 128 129 125 119 116 107 104 100 100 98 95 89 88 87 84 85 82 81 76 71 62 57 49 70 70 62 66 63 55 54 51 47 45 37 36 37 35 24
137 131 129 130 133 132 133 129 125 113 104 101 103 103 97 94 92 90 87 86 86 77 81 79 74 65 64 59 64 69 60 61 59 51 52 45 41 44 36 38 37 31 47
139 137 136 139 139 135 131 124 119 113 109 110 108 97 94 95 94 94 92 88 88 79 74 70 71 70 66 72 71 73 74 69 63 55 54 41 31 28 19 15 30 18 10
148 145 141 135 130 130 126 120 116 116 118 113 108 102 98 97 96 94 90 89 82 85 76 64 70 67 68 82 86 90 79 70 66 57 54 38 7 343 343 1 359 20 354
156 152 144 140 131 126 123 118 115 114 115 107 104 106 107 102 100 95 91 88 84 88 88 81 62 38 26 174 138 101 92 83 66 47 32 18 15 11 358 2 2 350 329
165 154 146 140 136 134 130 125 121 118 117 113 114 115 111 107 103 100 99 98 96 91 85 74 74 52 349 65 65 95 82 70 67 43 15 5 14 5 356 346 338 331 330
157 156 150 143 138 138 135 129 124 119 116 119 121 119 115 111 110 113 108 102 98 97 84 77 67 45 339 56 58 76 80 76 67 23 6 358 350 353 311 306 317 317 317
153 154 148 138 130 126 121 119 122 121 121 120 121 122 120 118 118 112 107 100 91 88 88 79 62 53 7 54 51 70 74 56 33 351 314 280 306 305 300 244 264 272 267
138 134 131 129 122 125 129 124 122 125 126 126 127 127 126 121 117 109 104 97 97 92 88 73 69 62 10 39 43 86 72 44 352 337 307 266 272 309 331 61 301 304 292
125 123 122 121 121 133 134 125 124 126 126 127 123 121 122 116 109 107 101 97 93 90 91 84 48 60 29 3 40 97 101 43 2 350 334 344 345 338 343 32 6 314 359
132 125 124 123 125 131 132 124 124 122 124 123 124 116 109 106 105 102 99 96 94 91 80 81 59 51 37 345 38 68 97 88 46 355 340 343 346 15 7 358 340 316 348
132 127 122 127 126 135 132 126 121 124 128 126 117 116 121 121 116 110 107 102 103 95 80 68 51 38 31 23 2 26 16 38 85 2 3 331 3 352 348 344 327 331 353
128 126 125 125 123 131 132 123 124 130 127 123 118 114 111 114 118 117 115 107 94 90 83 65 41 357 354 341 358 357 349 353 47 68 18 360 352 344 341 331 341 351 331
125 124 122 124 123 120 116 119 128 129 127 123 117 115 113 109 106 106 113 110 107 105 112 100 27 323 327 325 320 313 310 332 51 47 12 355 359 355 347 344 330 317 310
122 122 123 120 112 116 119 126 133 130 121 118 118 120 107 109 107 98 123 123 189 176 161 192 179 146 313 289 316 10 197 203 138 60 21 352 351 343 337 327 313 309 306
119 116 114 115 117 118 121 123 123 124 123 119 115 119 113 108 106 100 56 70 75 64 58 75 152 215 304 333 2 26 43 19 10 41 20 336 338 319 310 304 301 290 292